• In Netherlands
  • List of Countries
  • For 7 days
  • Water Temperature
  • Satellite Maps
  • Weather Map
  • Weather Widgets
  • user-avatar
    Login

    Hourly Weather Trinidad

    Today, 25 April, Tuesday

    Time Temperature Precipitation Wind Pressure Humidity
    00:00 +26°C° 0 mm 2 mps 742 mmHg 92%
    01:00 +25°C° 0 mm 2 mps 742 mmHg 93%
    02:00 +25°C° 0 mm 2 mps 742 mmHg 94%
    03:00 +25°C° 0 mm 2 mps 742 mmHg 95%
    04:00 +25°C° 0 mm 2 mps 742 mmHg 95%
    05:00 +25°C° 0 mm 2 mps 742 mmHg 96%
    06:00 +26°C° 0 mm 2 mps 742 mmHg 93%
    07:00 +26°C° 0 mm 2 mps 743 mmHg 89%
    08:00 +27°C° 0 mm 3 mps 743 mmHg 85%
    09:00 +29°C° 0.2 mm 3 mps 743 mmHg 79%
    10:00 +30°C° 0.2 mm 4 mps 743 mmHg 74%
    11:00 +33°C° 0.2 mm 4 mps 743 mmHg 69%
    12:00 +33°C° 0.2 mm 4 mps 742 mmHg 67%
    13:00 +34°C° 0.2 mm 4 mps 742 mmHg 65%
    14:00 +34°C° 0.2 mm 5 mps 741 mmHg 63%
    15:00 +33°C° 0.1 mm 4 mps 741 mmHg 66%
    16:00 +33°C° 0.1 mm 4 mps 740 mmHg 70%
    17:00 +31°C° 0.1 mm 3 mps 740 mmHg 73%
    18:00 +30°C° 0 mm 3 mps 740 mmHg 79%
    19:00 +29°C° 0 mm 2 mps 740 mmHg 84%
    20:00 +27°C° 0 mm 2 mps 741 mmHg 90%
    21:00 +27°C° 0 mm 2 mps 741 mmHg 90%
    22:00 +27°C° 0 mm 2 mps 742 mmHg 90%
    23:00 +27°C° 0 mm 2 mps 742 mmHg 91%

    Tomorrow, 26 April, Wednesday

    Time Temperature Precipitation Wind Pressure Humidity
    00:00 +27°C° 0 mm 2 mps 742 mmHg 91%
    01:00 +27°C° 0 mm 2 mps 742 mmHg 92%
    02:00 +27°C° 0 mm 2 mps 742 mmHg 92%
    03:00 +26°C° 0 mm 2 mps 742 mmHg 93%
    04:00 +26°C° 0 mm 2 mps 742 mmHg 94%
    05:00 +26°C° 0 mm 2 mps 742 mmHg 94%
    06:00 +26°C° 0 mm 2 mps 742 mmHg 92%
    07:00 +27°C° 0 mm 3 mps 743 mmHg 91%
    08:00 +27°C° 0 mm 3 mps 743 mmHg 89%
    09:00 +28°C° 0 mm 3 mps 744 mmHg 83%
    10:00 +30°C° 0 mm 3 mps 744 mmHg 77%
    11:00 +31°C° 0 mm 3 mps 745 mmHg 71%
    12:00 +31°C° 0.3 mm 3 mps 744 mmHg 70%
    13:00 +33°C° 0.3 mm 3 mps 743 mmHg 69%
    14:00 +32°C° 0.3 mm 2 mps 743 mmHg 68%
    15:00 +31°C° 1.1 mm 2 mps 743 mmHg 73%
    16:00 +31°C° 1.1 mm 2 mps 742 mmHg 78%
    17:00 +30°C° 1.1 mm 1 mps 742 mmHg 83%
    18:00 +28°C° 2.2 mm 2 mps 743 mmHg 87%
    19:00 +26°C° 2.2 mm 3 mps 744 mmHg 91%
    20:00 +23°C° 2.2 mm 4 mps 744 mmHg 94%
    21:00 +23°C° 0.6 mm 4 mps 745 mmHg 95%
    22:00 +22°C° 0.6 mm 3 mps 746 mmHg 95%
    23:00 +22°C° 0.6 mm 3 mps 747 mmHg 95%

    Day after tomorrow, 27 April, Thursday

    Time Temperature Precipitation Wind Pressure Humidity
    00:00 +21°C° 0.4 mm 3 mps 747 mmHg 95%
    01:00 +21°C° 0.4 mm 3 mps 747 mmHg 94%
    02:00 +20°C° 0.4 mm 3 mps 747 mmHg 94%
    03:00 +20°C° 0.2 mm 3 mps 747 mmHg 94%
    04:00 +20°C° 0.2 mm 3 mps 747 mmHg 94%
    05:00 +19°C° 0.2 mm 3 mps 747 mmHg 93%
    06:00 +19°C° 0.1 mm 3 mps 748 mmHg 91%
    07:00 +19°C° 0.1 mm 3 mps 748 mmHg 89%
    08:00 +19°C° 0.1 mm 3 mps 749 mmHg 86%
    09:00 +19°C° 1.2 mm 3 mps 749 mmHg 86%
    10:00 +19°C° 1.2 mm 3 mps 750 mmHg 87%
    11:00 +18°C° 1.2 mm 2 mps 751 mmHg 87%
    12:00 +19°C° 1.4 mm 2 mps 750 mmHg 86%
    13:00 +19°C° 1.4 mm 2 mps 749 mmHg 86%
    14:00 +19°C° 1.4 mm 2 mps 749 mmHg 85%
    15:00 +19°C° 0.1 mm 2 mps 748 mmHg 83%
    16:00 +19°C° 0.1 mm 2 mps 748 mmHg 81%
    17:00 +20°C° 0.1 mm 2 mps 748 mmHg 79%
    18:00 +19°C° 0 mm 2 mps 748 mmHg 80%
    19:00 +19°C° 0 mm 1 mps 748 mmHg 80%
    20:00 +19°C° 0 mm 1 mps 748 mmHg 80%
    21:00 +19°C° 0 mm 1 mps 749 mmHg 80%
    22:00 +17°C° 0 mm 2 mps 749 mmHg 79%
    23:00 +17°C° 0 mm 2 mps 749 mmHg 78%

    28 April, Friday

    Time Temperature Precipitation Wind Pressure Humidity
    00:00 +17°C° 0 mm 2 mps 748 mmHg 78%
    01:00 +17°C° 0 mm 2 mps 748 mmHg 78%
    02:00 +16°C° 0 mm 2 mps 748 mmHg 77%
    03:00 +16°C° 0 mm 2 mps 747 mmHg 77%
    04:00 +16°C° 0 mm 2 mps 747 mmHg 77%
    05:00 +16°C° 0 mm 1 mps 747 mmHg 76%
    06:00 +16°C° 0 mm 2 mps 748 mmHg 74%
    07:00 +17°C° 0 mm 2 mps 748 mmHg 71%
    08:00 +17°C° 0 mm 2 mps 749 mmHg 69%
    09:00 +20°C° 0 mm 2 mps 749 mmHg 63%
    10:00 +23°C° 0 mm 2 mps 750 mmHg 57%
    11:00 +25°C° 0 mm 3 mps 750 mmHg 51%
    12:00 +26°C° 0 mm 2 mps 749 mmHg 50%
    13:00 +26°C° 0 mm 2 mps 749 mmHg 50%
    14:00 +27°C° 0 mm 2 mps 748 mmHg 49%
    15:00 +27°C° 0 mm 2 mps 747 mmHg 54%
    16:00 +27°C° 0 mm 2 mps 747 mmHg 59%
    17:00 +26°C° 0 mm 2 mps 747 mmHg 64%
    18:00 +25°C° 0 mm 2 mps 747 mmHg 67%
    19:00 +23°C° 0 mm 2 mps 748 mmHg 69%
    20:00 +21°C° 0 mm 2 mps 748 mmHg 72%
    21:00 +21°C° 0 mm 2 mps 748 mmHg 73%
    22:00 +20°C° 0 mm 2 mps 749 mmHg 74%
    23:00 +20°C° 0 mm 2 mps 749 mmHg 75%

    29 April, Saturday

    Time Temperature Precipitation Wind Pressure Humidity
    00:00 +20°C° 0 mm 2 mps 748 mmHg 75%
    01:00 +19°C° 0 mm 2 mps 748 mmHg 75%
    02:00 +19°C° 0 mm 2 mps 748 mmHg 76%
    03:00 +19°C° 0 mm 2 mps 748 mmHg 75%
    04:00 +19°C° 0 mm 2 mps 748 mmHg 75%
    05:00 +18°C° 0 mm 2 mps 748 mmHg 75%
    06:00 +19°C° 0 mm 2 mps 748 mmHg 72%
    07:00 +19°C° 0 mm 3 mps 749 mmHg 69%
    08:00 +20°C° 0 mm 3 mps 749 mmHg 66%
    09:00 +22°C° 0 mm 3 mps 750 mmHg 59%
    10:00 +25°C° 0 mm 3 mps 750 mmHg 52%
    11:00 +27°C° 0 mm 4 mps 750 mmHg 46%
    12:00 +28°C° 0 mm 3 mps 749 mmHg 44%
    13:00 +29°C° 0 mm 3 mps 748 mmHg 43%
    14:00 +30°C° 0 mm 3 mps 747 mmHg 42%
    15:00 +29°C° 0 mm 2 mps 747 mmHg 47%
    16:00 +28°C° 0 mm 2 mps 747 mmHg 53%
    17:00 +28°C° 0 mm 2 mps 746 mmHg 58%
    18:00 +26°C° 0 mm 2 mps 747 mmHg 60%
    19:00 +24°C° 0 mm 2 mps 747 mmHg 62%
    20:00 +23°C° 0 mm 2 mps 747 mmHg 64%
    21:00 +21°C° 0 mm 2 mps 747 mmHg 65%
    22:00 +21°C° 0 mm 2 mps 747 mmHg 66%
    23:00 +20°C° 0 mm 2 mps 748 mmHg 67%

    30 April, Sunday

    Time Temperature Precipitation Wind Pressure Humidity
    00:00 +20°C° 0 mm 2 mps 747 mmHg 67%
    01:00 +20°C° 0 mm 2 mps 747 mmHg 68%
    02:00 +19°C° 0 mm 2 mps 747 mmHg 68%
    03:00 +19°C° 0 mm 2 mps 747 mmHg 69%
    04:00 +19°C° 0 mm 2 mps 747 mmHg 69%
    05:00 +19°C° 0 mm 2 mps 747 mmHg 70%
    06:00 +19°C° 0 mm 2 mps 747 mmHg 69%
    07:00 +20°C° 0 mm 2 mps 748 mmHg 68%
    08:00 +20°C° 0 mm 2 mps 748 mmHg 67%
    09:00 +23°C° 0 mm 2 mps 748 mmHg 60%
    10:00 +25°C° 0 mm 2 mps 748 mmHg 54%
    11:00 +28°C° 0 mm 2 mps 748 mmHg 47%
    12:00 +29°C° 0 mm 2 mps 747 mmHg 45%
    13:00 +30°C° 0 mm 2 mps 746 mmHg 43%
    14:00 +31°C° 0 mm 1 mps 745 mmHg 41%
    15:00 +31°C° 0 mm 1 mps 745 mmHg 47%
    16:00 +30°C° 0 mm 1 mps 745 mmHg 53%
    17:00 +30°C° 0 mm 1 mps 744 mmHg 59%
    18:00 +27°C° 0 mm 1 mps 745 mmHg 63%
    19:00 +25°C° 0 mm 1 mps 745 mmHg 67%
    20:00 +23°C° 0 mm 1 mps 745 mmHg 71%
    21:00 +23°C° 0 mm 1 mps 745 mmHg 71%
    22:00 +22°C° 0 mm 1 mps 746 mmHg 71%
    23:00 +21°C° 0 mm 2 mps 746 mmHg 72%
    Show more